User: anonymous   Login
Location: Campillo
(40.8621°N, 4.2488°W)
Time: 22:45:27
(UTC+00:00)
Language:

NOAA 16 DEB - Orbit

View from above orbital plane
View from above orbital plane
View from above satellite
View from above satellite

Ground track
Ground track

The orbit data is extracted from the following two-line orbital elements,

1 41156U 00055CP  21334.35000429  .00002236  00000-0  87011-3 0  9996
2 41156  98.9517 114.8307 0059629 241.5186 117.9981 14.29878577312426
Epoch (UTC): 30 November 2021 08:24:00
Eccentricity: 0.0059629
inclination: 98.9517°
perigee height: 749 km
apogee height: 835 km
right ascension of ascending node: 114.8307°
argument of perigee: 241.5186°
revolutions per day: 14.29878577
mean anomaly at epoch: 117.9981°
orbit number at epoch: 31242

The dashed part of the orbit path shows where the satellite is in the earth's shadow,  

DLR